This demonstration page uses our WeatherBlox Daily Observations layout. Learn more.

Hourly Observations for August 28, 2016

Temp ( °F °C ) Dew Point ( °F °C ) Humidity (%) Winds ( mph kmh ) Pressure ( in mb ) Visibility ( mi km ) Precip ( " mm )
12:54 am 00:54 Clear 68 20 64 17.8 87 87 Calm 30.04 1017 10 16.0934 0 0
1:54 am 01:54 Clear 65 18.3 63 17.2 93 93 N 6 9 30.03 1017 10 16.0934 0 0
2:54 am 02:54 Clear 64 17.8 62 16.7 93 93 Calm 30.03 1017 10 16.0934 0 0
3:54 am 03:54 Clear 65 18.3 62 16.7 90 90 Calm 30.03 1017 10 16.0934 0 0
4:54 am 04:54 Clear 63 17.2 61 16.1 93 93 NNE 3 6 30.04 1017 10 16.0934 0 0
5:54 am 05:54 Mostly Cloudy 65 18.3 63 17.2 93 93 Calm 30.04 1017 10 16.0934 0 0
6:54 am 06:54 Sunny 64 17.8 62 16.7 93 93 Calm 30.05 1018 10 16.0934 0 0
7:54 am 07:54 Sunny 71 21.7 66 18.9 84 84 Calm 30.06 1018 10 16.0934 0 0
8:54 am 08:54 Sunny 74 23.3 69 20.6 85 85 S 5 7 30.07 1018 10 16.0934 0 0
9:54 am 09:54 Sunny 78 25.6 70 21.1 76 76 S 6 9 30.07 1018 10 16.0934 0 0
10:54 am 10:54 Sunny 81 27.2 71 21.7 72 72 ESE 3 6 30.07 1018 10 16.0934 0 0
11:54 am 11:54 Sunny 86 30 72 22.2 63 63 S 8 13 30.06 1018 10 16.0934 0 0
12:54 pm 12:54 Partly Cloudy 90 32.2 71 21.7 54 54 S 14 22 30.05 1018 10 16.0934 0 0
1:54 pm 13:54 Mostly Sunny 92 33.3 68 20 46 46 S 13 20 30.04 1017 10 16.0934 0 0
2:54 pm 14:54 Mostly Cloudy with Nearby Thunderstorms 91 32.8 69 20.6 49 49 SSW 12 19 30.02 1017 10 16.0934 0 0
3:17 pm 15:17 Partly Cloudy 87 30.6 67 19.4 51 51 ESE 15 24 30 1016 10 16.0934 0 0
3:54 pm 15:54 Sunny 88 31.1 66 18.9 48 48 ESE 12 19 30.02 1017 10 16.0934 0 0
4:54 pm 16:54 Sunny 89 31.7 69 20.6 52 52 SE 14 22 30.01 1016 10 16.0934 0 0
5:54 pm 17:54 Mostly Sunny 83 28.3 67 19.4 59 59 SE 22 35 30.04 1017 10 16.0934 0 0
6:54 pm 18:54 Sunny 80 26.7 68 20 67 67 SE 13 20 30.05 1018 10 16.0934 0 0
7:54 pm 19:54 Sunny 77 25 67 19.4 71 71 SSE 10 17 30.06 1018 10 16.0934 0 0
8:54 pm 20:54 Clear 74 23.3 65 18.3 74 74 S 6 9 30.07 1018 10 16.0934 0 0
9:54 pm 21:54 Mostly Clear 72 22.2 66 18.9 82 82 SSW 6 9 30.09 1019 10 16.0934 0 0
10:54 pm 22:54 Clear 73 22.8 65 18.3 76 76 S 7 11 30.09 1019 10 16.0934 0 0
11:54 pm 23:54 Clear 72 22.2 66 18.9 82 82 S 3 6 30.11 1020 10 16.0934 0 0

Powered by AerisWeather